Location: Alafon
(8.4500°N, 4.2333°E)
Time: 10:33:44
(UTC+00:00)

Courier 1B Rocket - Visible Passes

Search period start: 03 August 2021 00:00
Search period end: 13 August 2021 00:00
Orbit: 920 x 1202 km, 28.2° (Epoch: 02 August)

Date Brightness Start Highest point End Pass type
(mag) Time Alt. Az. Time Alt. Az. Time Alt. Az.
03 Aug 7.4 03:03:59 10° NNW 03:06:32 12° N 03:09:03 10° NNE visible
03 Aug 7.0 04:56:34 10° NNW 05:01:23 22° NNE 05:06:08 10° ENE visible
03 Aug 6.9 18:22:55 10° S 18:27:29 16° SSE 18:31:59 10° ESE visible
03 Aug 6.1 20:13:58 10° SW 20:18:59 39° SSW 20:18:59 39° SSW visible
04 Aug 7.6 02:06:51 11° NNE 02:06:51 11° NNE 02:07:28 10° NNE visible
04 Aug 7.2 03:55:52 10° NNW 03:59:59 17° NNE 04:04:00 10° NE visible
04 Aug 5.9 19:13:07 10° SW 19:20:12 37° SSE 19:22:39 30° ESE visible
04 Aug 7.0 21:06:17 10° WSW 21:09:06 24° WSW 21:09:06 24° WSW visible
05 Aug 7.3 02:56:12 12° NNW 02:58:26 15° N 03:01:49 10° NE visible
05 Aug 6.5 04:47:25 10° NW 04:53:00 31° NNE 04:58:27 10° E visible
05 Aug 6.5 18:12:37 10° SSW 18:18:48 25° SSE 18:24:56 10° E visible
05 Aug 5.2 20:04:51 10° WSW 20:12:42 80° SSE 20:12:49 80° SE visible
06 Aug 7.7 01:59:16 11° NNE 01:59:16 11° NNE 01:59:49 10° NNE visible
06 Aug 6.9 03:46:37 10° NNW 03:51:42 23° NNE 03:56:36 10° ENE visible
06 Aug 5.5 19:03:43 10° SW 19:11:22 56° SSE 19:16:32 21° E visible
06 Aug 6.4 20:57:45 10° W 21:02:58 40° WNW 21:02:58 40° WNW visible
07 Aug 7.1 02:48:53 17° N 02:50:15 19° NNE 02:54:35 10° ENE visible
07 Aug 5.9 04:38:20 10° NW 04:44:30 47° NNE 04:50:28 10° E visible
07 Aug 5.5 19:56:03 10° WSW 20:03:53 72° NNW 20:06:39 43° NE visible
07 Aug 7.7 21:51:48 10° WNW 21:53:06 14° WNW 21:53:06 14° WNW visible
08 Aug 7.8 01:52:14 11° NE 01:52:14 11° NE 01:52:30 10° NE visible
08 Aug 6.4 03:38:39 15° NW 03:43:18 33° NNE 03:48:55 10° E visible
08 Aug 5.4 18:54:39 10° WSW 19:02:30 81° SSE 19:10:16 10° ENE visible
08 Aug 6.5 20:49:31 10° W 20:56:36 37° NNW 20:56:41 37° NNW visible
09 Aug 6.8 02:42:08 25° NNE 02:42:08 25° NNE 02:47:09 10° ENE visible
09 Aug 5.1 04:29:22 10° WNW 04:35:54 72° NNE 04:42:10 10° ESE visible
09 Aug 6.1 19:47:33 10° W 19:55:06 51° NNW 20:00:10 21° NE visible
09 Aug 7.6 21:44:02 10° WNW 21:46:36 17° NW 21:46:36 17° NW visible
10 Aug 5.7 03:32:10 32° NNW 03:34:48 49° NNE 03:40:55 10° E visible
10 Aug 5.7 18:45:54 10° WSW 18:53:40 71° NNW 19:01:27 10° NE visible
10 Aug 6.9 20:41:34 10° WNW 20:48:03 28° NNW 20:49:56 25° N visible
11 Aug 6.7 02:35:50 28° ENE 02:35:50 28° ENE 02:39:25 10° E visible
11 Aug 4.9 04:22:17 18° WNW 04:27:15 74° SSW 04:33:32 10° SE visible
11 Aug 6.6 19:39:21 10° W 19:46:26 37° NNW 19:53:07 11° NE visible
11 Aug 7.6 21:36:23 10° NW 21:39:31 17° NNW 21:39:31 17° NNW visible
12 Aug 5.0 03:25:59 74° N 03:26:11 75° NNE 03:32:35 10° ESE visible
12 Aug 6.3 18:37:27 10° W 18:44:55 50° NNW 18:52:27 10° NE visible
12 Aug 7.2 20:33:49 10° WNW 20:39:38 22° NNW 20:42:33 18° NNE visible
